Location: Eastchurch
(51.4000°N, 0.8667°E)
Time: 09:55:35
(UTC+00:00)

Cosmos 1697 Rocket - Pass Details

Date: 19 January 2026
Orbit: 830 x 844 km, 71.0° (Epoch: 18 February)

Event Time Altitude Azimuth Distance (km) Brightness Sun altitude
Rises 18:37:58 0° 328° (NNW) 3,409 6.2 -20.4°
Reaches altitude 10° 18:40:25 10° 327° (NNW) 2,472 5.4 -20.7°
Maximum altitude 18:46:05 74° 244° (WSW) 880 2.8 -21.6°
Drops below altitude 10° 18:51:43 10° 160° (SSE) 2,459 5.0 -22.5°
Enters shadow 18:53:56 - 159° (SSE) 3,304 5.6 -22.8°
